Home > Weather > Barra do Garças > Past weeks

Flag for Brazil Weather for the Past 2 Weeks in Barra do Garças, Mato Grosso, Brazil

Now
59 °F

Clear.


Feels Like: 58 °F
Forecast: 61 / 88 °F
Wind: 7 mph from Southeast

Location: Goiania Aeroporto

Current Time: Apr 30, 2016 at 7:09:58 AM

Latest Report: Apr 30, 2016 at 6:00 AM


Visibility: 10 mi

Pressure: 30.07 "Hg

Humidity: 82%

Dew Point: 54 °F

Location of Barra do GarçasLocation

Historic Weather in Barra do Garças — Graph

°F

Barra do Garças Temperature Yesterday

Maximum temperature yesterday: 86 °F (at 2:00 PM)
Minimum temperature yesterday: 59 °F (at 4:00 AM)
Average temperature yesterday: 72 °F

High & Low Weather Summary for the Past Weeks

 TemperatureHumidityPressure
High91 °F (Apr 15, 2:00 PM)88% (Apr 16, 6:00 AM)30.15 "Hg (Apr 16, 6:00 AM)
Low59 °F (Apr 28, 5:00 AM)22% (Apr 15, 1:00 PM)29.86 "Hg (Apr 25, 5:00 PM)
Average76 °F54%30.04 "Hg
* Reported Apr 15 6:00 AM — Apr 30 6:00 AM, Barra do Garças, Weather by CustomWeather, © 2016

Note: Actual official high and low records may vary slightly from our data, if they occured in-between our weather recording intervals... More about our weather records

Advertising

Barra do Garças Weather History for the Previous 24 Hours

Scroll right to see more
 ConditionsComfort  
Time TempWeatherWind HumidityBarometerVisibility
6:00 AM
Sat, Apr 30
59 °FClear.7 mph82%30.07 "Hg10 mi
5:00 AM63 °FClear.6 mph73%30.07 "Hg10 mi
4:00 AM63 °FClear.5 mph73%30.07 "Hg10 mi
3:00 AM64 °FClear.2 mph68%30.07 "Hg10 mi
2:00 AM64 °FClear.5 mph68%30.07 "Hg10 mi
1:00 AM64 °FClear.2 mph68%30.07 "Hg10 mi
12:00 AM70 °FClear.5 mph60%30.07 "Hg10 mi
11:00 PM
Fri, Apr 29
72 °FClear.7 mph57%30.09 "Hg10 mi
10:00 PM73 °FClear.7 mph57%30.07 "Hg10 mi
9:00 PM75 °FClear.5 mph50%30.07 "Hg10 mi
8:00 PM77 °FPassing clouds.6 mph51%30.04 "HgN/A
7:00 PM79 °FPassing clouds.9 mph48%30.01 "HgN/A
6:00 PM81 °FPassing clouds.10 mph45%30.01 "HgN/A
5:00 PM84 °FPassing clouds.12 mph40%29.98 "HgN/A
4:00 PM86 °FPassing clouds.6 mph35%29.95 "HgN/A
3:00 PM86 °FPassing clouds.7 mph35%29.98 "HgN/A
2:00 PM86 °FPassing clouds.6 mph35%29.98 "HgN/A
1:00 PM82 °FPassing clouds.6 mph42%30.01 "HgN/A
12:00 PM79 °FSunny.5 mph48%30.04 "Hg10 mi
11:00 AM75 °FSunny.5 mph50%30.07 "Hg10 mi
10:00 AM72 °FSunny.6 mph57%30.07 "Hg10 mi
9:00 AM66 °FSunny.7 mph64%30.07 "Hg10 mi
8:00 AM61 °FSunny.6 mph77%30.07 "Hg10 mi
7:00 AM59 °FSunny.3 mph82%30.07 "Hg10 mi
Weather by CustomWeather, © 2016

See weather overviewHow to use our weather pages